Home   Weather   Lüdenscheid   Past weeks
Flag for Germany

Past Weather in Lüdenscheid, North Rhine-Westphalia, Germany — Yesterday and Last 2 Weeks

Now
82 °F

Passing clouds.


Feels Like: 82 °F
Forecast: 69 / 56 °F
Wind: 14 mph from Southwest

Location: Dortmund / Wickede

Current Time: Jul 20, 2019 at 11:51:41 am

Latest Report: Jul 20, 2019 at 11:20 am


Visibility: N/A

Pressure: 29.86 "Hg

Humidity: 42%

Dew Point: 57 °F

Location of LüdenscheidLocation

Past Weather in Lüdenscheid — Graph

°F

Lüdenscheid Temperature Yesterday

Maximum temperature yesterday: 79 °F (at 3:20 pm)
Minimum temperature yesterday: 61 °F (at 3:50 am)
Average temperature yesterday: 69 °F

High & Low Weather Summary for the Past Weeks

 TemperatureHumidityPressure
High81 °F (Jul 6, 4:20 pm)100% (Jul 7, 4:20 am)30.15 "Hg (Jul 7, 4:20 am)
Low43 °F (Jul 10, 5:20 am)29% (Jul 10, 3:20 pm)29.80 "Hg (Jul 6, 2:50 pm)
Average62 °F73%29.99 "Hg
* Reported Jul 5 10:20 am — Jul 20 10:20 am, Lüdenscheid. Weather by CustomWeather, © 2019

Note: Actual official high and low records may vary slightly from our data, if they occured in-between our weather recording intervals... More about our weather records

Advertising

Lüdenscheid Weather History for the Previous 24 Hours

Scroll right to see more
 ConditionsComfort  
Time TempWeatherWind HumidityBarometerVisibility
10:20 am
Sat, Jul 20
81 °FPassing clouds.15 mph48%29.86 "HgN/A
9:50 am77 °FPassing clouds.10 mph54%29.86 "HgN/A
9:20 am75 °FPassing clouds.10 mph57%29.86 "HgN/A
8:50 am73 °FPassing clouds.9 mph61%29.86 "HgN/A
8:20 am70 °FSunny.8 mph64%29.86 "Hg10 mi
7:50 am66 °FPassing clouds.7 mph73%29.89 "HgN/A
7:20 am66 °FSunny.8 mph68%29.89 "Hg10 mi
6:50 am63 °FSunny.7 mph77%29.89 "Hg10 mi
6:20 am61 °FSunny.8 mph77%29.89 "Hg10 mi
5:50 am61 °FSunny.8 mph77%29.89 "Hg10 mi
5:20 am61 °FClear.8 mph77%29.89 "Hg10 mi
4:50 am61 °FClear.8 mph77%29.89 "HgN/A
4:20 am61 °FClear.10 mph77%29.89 "HgN/A
3:50 am63 °FPassing clouds.9 mph73%29.89 "HgN/A
3:20 am63 °FPassing clouds.9 mph73%29.92 "HgN/A
2:50 am63 °FPassing clouds.8 mph73%29.92 "HgN/A
2:20 am63 °FPassing clouds.8 mph73%29.92 "HgN/A
1:50 am63 °FClear.7 mph73%29.92 "HgN/A
1:20 am63 °FClear.8 mph68%29.92 "HgN/A
12:50 am64 °FPassing clouds.6 mph68%29.92 "HgN/A
12:20 am64 °FClear.7 mph64%29.95 "HgN/A
11:50 pm
Fri, Jul 19
64 °FClear.6 mph64%29.95 "HgN/A
11:20 pm66 °FPassing clouds.6 mph60%29.95 "HgN/A
10:50 pm66 °FOvercast.6 mph60%29.95 "HgN/A
10:20 pm63 °FPassing clouds.5 mph68%29.95 "HgN/A
9:50 pm66 °FClear.5 mph60%29.95 "Hg10 mi
9:20 pm70 °FSunny.5 mph57%29.95 "Hg10 mi
8:50 pm72 °FSunny.6 mph53%29.92 "Hg10 mi
8:20 pm73 °FPassing clouds.3 mph47%29.92 "HgN/A
7:50 pm75 °FPassing clouds.5 mph44%29.92 "HgN/A
7:20 pm77 °FSunny.5 mph44%29.92 "Hg10 mi
6:50 pm75 °FSunny.6 mph44%29.92 "Hg10 mi
6:20 pm77 °FSunny.6 mph44%29.92 "Hg10 mi
5:50 pm75 °FPassing clouds.6 mph44%29.92 "HgN/A
5:20 pm75 °FPassing clouds.7 mph44%29.95 "HgN/A
4:50 pm77 °FPassing clouds.10 mph44%29.95 "HgN/A
4:20 pm77 °FPassing clouds.10 mph42%29.95 "HgN/A
3:50 pm77 °FPassing clouds.10 mph42%29.95 "HgN/A
3:20 pm79 °FPassing clouds.13 mph37%29.95 "HgN/A
2:50 pm77 °FPassing clouds.9 mph44%29.92 "HgN/A
2:20 pm75 °FPassing clouds.6 mph50%29.95 "HgN/A
1:50 pm75 °FPassing clouds.10 mph50%29.95 "HgN/A
1:20 pm73 °FPartly sunny.9 mph53%29.95 "HgN/A
12:50 pm75 °FPassing clouds.9 mph57%29.95 "HgN/A
12:20 pm73 °FPassing clouds.10 mph57%29.95 "HgN/A
11:50 am72 °FScattered clouds.8 mph61%29.95 "HgN/A
11:20 am68 °FBroken clouds.6 mph73%29.95 "HgN/A
Weather by CustomWeather, © 2019

See weather overview